Location: *
(45.8589°N, 4.7139°E)
Time: 17:22:51
(UTC+00:00)

Cosmos 1605 Rocket - Visible Passes

Search period start: 08 August 2020 00:00
Search period end: 18 August 2020 00:00
Orbit: 944 x 1007 km, 82.9° (Epoch: 07 August)

Date Brightness Start Highest point End Pass type
(mag) Time Alt. Az. Time Alt. Az. Time Alt. Az.
08 Aug 4.6 20:21:08 16° SE 20:25:16 35° E 20:30:43 10° NNE visible
08 Aug 5.1 22:05:45 14° SW 22:10:34 39° WNW 22:16:15 10° N visible
09 Aug 4.0 20:45:50 18° S 20:50:24 62° E 20:56:24 10° NNE visible
09 Aug 5.9 22:31:31 10° WSW 22:36:16 23° WNW 22:41:00 10° NNW visible
10 Aug 5.4 19:27:17 10° ESE 19:31:04 17° E 19:34:51 10° NE visible
10 Aug 4.0 21:10:28 15° SSW 21:15:41 77° W 21:21:48 10° N visible
10 Aug 6.4 22:59:19 10° W 23:02:09 13° WNW 23:04:59 10° NNW visible
11 Aug 4.8 19:50:47 10° SE 19:55:59 30° E 20:01:11 10° NNE visible
11 Aug 4.9 21:35:19 10° SSW 21:41:08 45° WNW 21:46:57 10° N visible
12 Aug 4.1 20:15:10 10° SSE 20:21:04 53° E 20:26:58 10° NNE visible
12 Aug 5.8 22:01:44 10° SW 22:06:47 26° WNW 22:11:49 10° NNW visible
13 Aug 3.9 20:40:11 10° S 20:46:18 89° W 20:52:26 10° N visible
13 Aug 6.4 22:29:07 10° W 22:32:37 15° WNW 22:36:07 10° NNW visible
14 Aug 4.9 19:21:48 10° SE 19:26:43 26° E 19:31:36 10° NNE visible
14 Aug 4.7 21:05:47 10° SSW 21:11:43 52° WNW 21:17:39 10° N visible
15 Aug 4.3 19:46:00 10° SSE 19:51:45 45° E 19:57:30 10° NNE visible
15 Aug 5.6 21:32:01 10° SW 21:37:18 30° WNW 21:42:37 10° N visible
16 Aug 3.9 20:10:51 10° S 20:16:56 80° E 20:23:03 10° N visible
16 Aug 6.4 21:59:04 10° WSW 22:03:05 18° WNW 22:07:07 10° NNW visible
17 Aug 4.5 20:36:17 10° SSW 20:42:18 60° WNW 20:48:20 10° N visible
